STARLINK-4536

operational
NORAD ID: 53783 Int'l Des: 2022-111 Owner: SPXS Country: US Constellation: starlink
LEOCIRCULAR

关于 STARLINK-4536

正在加载描述...

实时位置

正在加载3D地球...

即将过境

高度历史

Altitude vs Time

uPlot chart will show altitude changes over time

两行轨道根数

1 53783U 22111L 25251.57147867 .00003027 00000-0 20810-3 0 9999
2 53783 53.2185 11.6019 0001078 91.5419 268.5697 15.08859812166200
Epoch: Sep 8, 2025 • Age: 20 hours

当前状态

高度 554.2 km
速度 7.58 km/s
星下点 -41.62°S, 174.3°W
发射日期 Sep 11, 2022
运行时间 2.9 years
类型 internet

技术详情

分类 Payload
质量 305.00 kg
干质量 290.00 kg
总质量 305.00 kg
长度 0.20 m
直径 2.80 m
跨度 9.00 m
形状 Box + pan
制造商 SPXS
平台类型 Starlink
阶段状态 In Orbit
所有者/国家 SPXS/US

大型星座

Loading constellations...